sat.trackr.live / text

‹ back to catalog

STARLINK-30388

NORAD 57784 · 2023-134P

PAYLOAD ACTIVE UNKNOWN

§ Identity

Operator
Country
US
Launch date
2023-09-04
Launch site
AFETR
Launch vehicle
Mass (kg)
RCS (m²)

Purposes: comms

External: N2YO · Heavens-Above · Gunter

§ Orbital elements

Epoch: 2026-09-20T02:42:07.014816Z

Period
94.27 min
Inclination
43.0015°
Eccentricity
0.0001090
Mean motion
15.27584366 rev/d
Perigee alt
482.3 km
Apogee alt
483.8 km
Semi-major
6,861.2 km
B*
7.4311e-6
RAAN
176.2831°
Arg perigee
270.9558°
Mean anomaly
89.1169°
Rev number
16,924

§ Raw data

STARLINK-303881 57784U 23134P   26263.11258119 -.00000058  00000+0  74311-5 0  99952 57784  43.0015 176.2831 0001090 270.9558  89.1169 15.27584366169243

JSON: /api/v1/satellites/57784 · /tle

For live sub-satellite position, see the globe view (requires WebGL).

§ Visibility from observer

Set your observer location to see the next 7 days of passes ≥ 10°. The values pass through the URL so the page stays shareable.

No JS? Fill the form by hand. The geolocation button needs JavaScript.